Tracking 32110 objects as of 7-Nov-2025
HD Live streaming from Space Station
objects crossing your sky now

ONEWEB-0425

Track ONEWEB-0425 now!
10-day predictions
ONEWEB-0425 is classified as:


NORAD ID: 51628
Int'l Code: 2022-012G
Perigee: 1,227.9 km
Apogee: 1,229.8 km
Inclination: 87.9 °
Period: 109.9 minutes
Semi major axis: 7599 km
RCS: Unknown
Launch date: February 10, 2022
Source: United Kingdom (UK)
Launch site: FRENCH GUIANA (FRGUI)
Your satellite tracking list
Your tracking list is empty




NASA's NSSDC Master Catalog

Two Line Element Set (TLE):
1 51628U 22012G   25311.28908416  .00000378  00000-0  10478-2 0  9999
2 51628  87.8791  80.4930 0001221  99.9885 260.1380 13.10371799180260
Source of the keplerian elements: AFSPC